TimeMDT,TemperatureF,Dew PointF,Humidity,Sea Level PressureIn,VisibilityMPH,Wind Direction,Wind SpeedMPH,Gust SpeedMPH,PrecipitationIn,Events,Conditions,WindDirDegrees,DateUTC
12:53 AM,39.9,30.0,68,29.99,10.0,SSE,12.7,-,N/A,,Clear,160,2011-10-13 06:53:00
1:53 AM,37.9,28.0,68,29.99,10.0,South,5.8,-,N/A,,Clear,190,2011-10-13 07:53:00
2:53 AM,41.0,26.1,55,29.96,10.0,South,6.9,-,N/A,,Clear,180,2011-10-13 08:53:00
3:53 AM,45.0,27.0,49,29.94,10.0,WSW,10.4,-,N/A,,Clear,250,2011-10-13 09:53:00
4:53 AM,39.9,27.0,60,29.96,10.0,WSW,9.2,-,N/A,,Partly Cloudy,250,2011-10-13 10:53:00
5:53 AM,41.0,27.0,57,29.96,10.0,WSW,11.5,-,N/A,,Partly Cloudy,240,2011-10-13 11:53:00
6:53 AM,44.1,25.0,47,29.99,10.0,West,8.1,-,N/A,,Scattered Clouds,260,2011-10-13 12:53:00
7:53 AM,44.1,27.0,51,30.01,10.0,WSW,4.6,-,N/A,,Scattered Clouds,240,2011-10-13 13:53:00
8:53 AM,50.0,26.6,40,30.08,10.0,WSW,6.9,-,N/A,,Scattered Clouds,240,2011-10-13 14:53:00
9:53 AM,59.0,21.0,23,29.96,10.0,SW,8.1,-,N/A,,Scattered Clouds,230,2011-10-13 15:53:00
10:53 AM,64.9,18.0,16,29.93,10.0,West,8.1,-,N/A,,Partly Cloudy,270,2011-10-13 16:53:00
11:53 AM,70.0,21.9,16,29.87,10.0,West,15.0,-,N/A,,Partly Cloudy,260,2011-10-13 17:53:00
12:53 PM,73.9,18.0,12,29.84,10.0,WNW,23.0,29.9,N/A,,Partly Cloudy,290,2011-10-13 18:53:00
1:53 PM,75.9,18.0,11,29.83,10.0,WNW,13.8,23.0,N/A,,Partly Cloudy,290,2011-10-13 19:53:00
2:53 PM,75.0,19.9,13,29.81,10.0,NE,5.8,18.4,N/A,,Partly Cloudy,40,2011-10-13 20:53:00
3:53 PM,73.9,24.1,16,29.80,10.0,NNE,8.1,-,N/A,,Partly Cloudy,20,2011-10-13 21:53:00
4:53 PM,71.1,26.1,19,29.82,10.0,ENE,10.4,-,N/A,,Partly Cloudy,60,2011-10-13 22:53:00
5:53 PM,64.4,28.4,26,29.97,10.0,East,9.2,-,N/A,,Partly Cloudy,80,2011-10-13 23:53:00
6:53 PM,57.9,27.0,31,29.88,10.0,East,6.9,-,N/A,,Scattered Clouds,80,2011-10-14 00:53:00
7:53 PM,55.0,28.9,37,29.90,10.0,East,8.1,-,N/A,,Scattered Clouds,100,2011-10-14 01:53:00
8:53 PM,52.0,28.0,40,29.92,10.0,SE,6.9,-,N/A,,Scattered Clouds,130,2011-10-14 02:53:00
9:53 PM,50.0,26.6,40,30.04,10.0,Variable,6.9,-,N/A,,Scattered Clouds,0,2011-10-14 03:53:00
10:53 PM,46.0,28.9,51,29.91,10.0,ESE,6.9,-,N/A,,Scattered Clouds,110,2011-10-14 04:53:00
11:53 PM,45.0,28.0,52,29.90,10.0,SW,5.8,-,N/A,,Partly Cloudy,230,2011-10-14 05:53:00